TimeCDT,TemperatureF,Dew PointF,Humidity,Sea Level PressureIn,VisibilityMPH,Wind Direction,Wind SpeedMPH,Gust SpeedMPH,PrecipitationIn,Events,Conditions,WindDirDegrees,DateUTC
12:15 AM,66.2,62.6,88,29.98,10.0,SW,5.8,-,N/A,,Clear,230,2012-11-01 05:15:00
12:35 AM,66.2,62.6,88,29.98,10.0,WSW,5.8,-,N/A,,Scattered Clouds,240,2012-11-01 05:35:00
12:55 AM,66.2,62.6,88,29.98,10.0,SW,4.6,-,N/A,,Mostly Cloudy,230,2012-11-01 05:55:00
1:15 AM,66.2,62.6,88,29.98,10.0,SW,5.8,-,N/A,,Mostly Cloudy,230,2012-11-01 06:15:00
1:35 AM,66.2,62.6,88,29.98,10.0,WSW,4.6,-,N/A,,Overcast,250,2012-11-01 06:35:00
2:15 AM,66.2,60.8,83,29.98,10.0,WSW,5.8,-,N/A,,Mostly Cloudy,250,2012-11-01 07:15:00
2:35 AM,66.2,60.8,83,29.98,10.0,WNW,3.5,-,N/A,,Mostly Cloudy,290,2012-11-01 07:35:00
2:55 AM,64.4,60.8,88,29.98,10.0,Calm,Calm,-,N/A,,Overcast,0,2012-11-01 07:55:00
3:15 AM,64.4,60.8,88,29.98,10.0,West,3.5,-,N/A,,Overcast,270,2012-11-01 08:15:00
3:35 AM,64.4,60.8,88,29.98,10.0,Calm,Calm,-,N/A,,Overcast,0,2012-11-01 08:35:00
3:55 AM,64.4,60.8,88,29.98,10.0,Calm,Calm,-,N/A,,Overcast,0,2012-11-01 08:55:00
4:15 AM,64.4,60.8,88,29.97,10.0,Calm,Calm,-,N/A,,Mostly Cloudy,0,2012-11-01 09:15:00
4:35 AM,62.6,60.8,94,29.98,10.0,West,3.5,-,N/A,,Mostly Cloudy,280,2012-11-01 09:35:00
4:55 AM,62.6,60.8,94,29.99,10.0,West,3.5,-,N/A,,Mostly Cloudy,280,2012-11-01 09:55:00
5:15 AM,62.6,60.8,94,29.99,10.0,West,3.5,-,N/A,,Scattered Clouds,280,2012-11-01 10:15:00
5:35 AM,60.8,59.0,94,30.00,10.0,NW,4.6,-,N/A,,Clear,310,2012-11-01 10:35:00
5:55 AM,60.8,59.0,94,30.00,10.0,Calm,Calm,-,N/A,,Clear,0,2012-11-01 10:55:00
6:15 AM,60.8,57.2,88,30.00,10.0,North,3.5,-,N/A,,Clear,10,2012-11-01 11:15:00
6:35 AM,59.0,55.4,88,30.01,10.0,North,3.5,-,N/A,,Clear,10,2012-11-01 11:35:00
6:55 AM,55.4,53.6,94,30.01,10.0,Calm,Calm,-,N/A,,Clear,0,2012-11-01 11:55:00
7:15 AM,55.4,53.6,94,30.02,10.0,Calm,Calm,-,N/A,,Clear,0,2012-11-01 12:15:00
7:35 AM,55.4,53.6,94,30.03,10.0,North,3.5,-,N/A,,Clear,10,2012-11-01 12:35:00
7:55 AM,57.2,53.6,88,30.04,10.0,North,5.8,-,N/A,,Clear,10,2012-11-01 12:55:00
8:15 AM,59.0,53.6,82,30.05,10.0,North,5.8,-,N/A,,Clear,10,2012-11-01 13:15:00
8:35 AM,60.8,51.8,72,30.05,10.0,NNE,5.8,-,N/A,,Clear,30,2012-11-01 13:35:00
8:55 AM,62.6,48.2,59,30.05,10.0,NE,6.9,-,N/A,,Clear,40,2012-11-01 13:55:00
9:15 AM,64.4,46.4,52,30.06,10.0,NE,10.4,-,N/A,,Clear,40,2012-11-01 14:15:00
9:35 AM,66.2,44.6,46,30.07,10.0,NNE,6.9,-,N/A,,Clear,30,2012-11-01 14:35:00
9:55 AM,68.0,41.0,37,30.08,10.0,NE,6.9,-,N/A,,Clear,40,2012-11-01 14:55:00
10:15 AM,69.8,37.4,31,30.08,10.0,NNE,9.2,-,N/A,,Clear,20,2012-11-01 15:15:00
10:35 AM,69.8,37.4,31,30.08,10.0,NNE,6.9,-,N/A,,Clear,30,2012-11-01 15:35:00
10:55 AM,71.6,37.4,29,30.09,10.0,NNE,6.9,-,N/A,,Clear,30,2012-11-01 15:55:00
11:15 AM,71.6,37.4,29,30.09,10.0,NE,4.6,-,N/A,,Clear,40,2012-11-01 16:15:00
11:35 AM,73.4,37.4,27,30.09,10.0,North,5.8,-,N/A,,Clear,360,2012-11-01 16:35:00
11:55 AM,73.4,37.4,27,30.08,10.0,Calm,Calm,-,N/A,,Clear,0,2012-11-01 16:55:00
12:15 PM,73.4,37.4,27,30.07,10.0,Calm,Calm,-,N/A,,Clear,0,2012-11-01 17:15:00
12:35 PM,75.2,39.2,27,30.06,10.0,Calm,Calm,-,N/A,,Clear,0,2012-11-01 17:35:00
12:55 PM,75.2,39.2,27,30.05,10.0,NNE,4.6,-,N/A,,Clear,30,2012-11-01 17:55:00
1:15 PM,73.4,46.4,38,30.04,7.0,WSW,6.9,-,N/A,,Clear,250,2012-11-01 18:15:00
1:35 PM,73.4,42.8,33,30.03,7.0,West,8.1,-,N/A,,Clear,270,2012-11-01 18:35:00
2:15 PM,75.2,42.8,31,30.02,7.0,West,6.9,-,N/A,,Clear,260,2012-11-01 19:15:00
2:35 PM,75.2,41.0,29,30.01,7.0,NNW,8.1,-,N/A,,Clear,330,2012-11-01 19:35:00
2:55 PM,77.0,41.0,28,30.00,7.0,NW,6.9,-,N/A,,Clear,310,2012-11-01 19:55:00
3:15 PM,77.0,42.8,29,30.00,7.0,WNW,6.9,-,N/A,,Clear,300,2012-11-01 20:15:00
3:35 PM,77.0,42.8,29,29.99,10.0,NW,3.5,-,N/A,,Clear,310,2012-11-01 20:35:00
3:55 PM,77.0,42.8,29,29.99,10.0,NW,4.6,-,N/A,,Clear,320,2012-11-01 20:55:00
4:15 PM,77.0,42.8,29,29.99,7.0,NW,3.5,-,N/A,,Clear,320,2012-11-01 21:15:00
4:35 PM,77.0,42.8,29,29.99,5.0,NW,3.5,-,N/A,,Haze,310,2012-11-01 21:35:00
4:55 PM,71.6,50.0,46,29.99,10.0,WSW,3.5,-,N/A,,Clear,240,2012-11-01 21:55:00
5:15 PM,69.8,46.4,43,29.99,5.0,SW,6.9,-,N/A,,Haze,230,2012-11-01 22:15:00
5:35 PM,68.0,46.4,46,30.00,7.0,SW,5.8,-,N/A,,Clear,230,2012-11-01 22:35:00
5:55 PM,68.0,46.4,46,30.00,10.0,SW,5.8,-,N/A,,Clear,230,2012-11-01 22:55:00
6:15 PM,64.4,50.0,59,30.01,10.0,Calm,Calm,-,N/A,,Clear,0,2012-11-01 23:15:00
6:35 PM,60.8,50.0,68,30.02,10.0,SW,3.5,-,N/A,,Clear,230,2012-11-01 23:35:00
6:55 PM,59.0,50.0,72,30.02,10.0,Calm,Calm,-,N/A,,Clear,0,2012-11-01 23:55:00
7:15 PM,55.4,51.8,88,30.03,10.0,Calm,Calm,-,N/A,,Clear,0,2012-11-02 00:15:00
7:35 PM,55.4,50.0,82,30.03,10.0,Calm,Calm,-,N/A,,Clear,0,2012-11-02 00:35:00
7:55 PM,55.4,50.0,82,30.03,10.0,Calm,Calm,-,N/A,,Clear,0,2012-11-02 00:55:00
8:15 PM,51.8,50.0,94,30.04,10.0,Calm,Calm,-,N/A,,Clear,0,2012-11-02 01:15:00
8:35 PM,51.8,50.0,94,30.04,10.0,Calm,Calm,-,N/A,,Clear,0,2012-11-02 01:35:00
8:55 PM,51.8,50.0,94,30.05,10.0,Calm,Calm,-,N/A,,Clear,0,2012-11-02 01:55:00
9:15 PM,51.8,50.0,94,30.05,10.0,Calm,Calm,-,N/A,,Clear,0,2012-11-02 02:15:00
9:35 PM,50.0,48.2,94,30.05,10.0,Calm,Calm,-,N/A,,Clear,0,2012-11-02 02:35:00
9:55 PM,50.0,50.0,100,30.05,10.0,Calm,Calm,-,N/A,,Clear,0,2012-11-02 02:55:00
10:15 PM,50.0,50.0,100,30.05,7.0,Calm,Calm,-,N/A,,Clear,0,2012-11-02 03:15:00
10:35 PM,50.0,50.0,100,30.06,10.0,Calm,Calm,-,N/A,,Clear,0,2012-11-02 03:35:00
10:55 PM,50.0,48.2,94,30.05,10.0,Calm,Calm,-,N/A,,Clear,0,2012-11-02 03:55:00
11:15 PM,50.0,48.2,94,30.05,10.0,Calm,Calm,-,N/A,,Clear,0,2012-11-02 04:15:00
11:35 PM,48.2,48.2,100,30.05,10.0,Calm,Calm,-,N/A,,Clear,0,2012-11-02 04:35:00
11:55 PM,50.0,48.2,94,30.05,10.0,Calm,Calm,-,N/A,,Clear,0,2012-11-02 04:55:00